TimeEST,TemperatureF,Dew PointF,Humidity,Sea Level PressureIn,VisibilityMPH,Wind Direction,Wind SpeedMPH,Gust SpeedMPH,PrecipitationIn,Events,Conditions,WindDirDegrees,DateUTC
12:32 AM,46.4,46.4,100,30.01,0.2,South,3.5,-,N/A,Fog,Fog,170,2013-01-14 05:32:00
12:53 AM,46.9,45.0,93,30.02,0.2,South,3.5,-,N/A,Fog,Fog,180,2013-01-14 05:53:00
1:53 AM,46.9,45.0,93,30.02,0.2,Calm,Calm,-,N/A,Fog,Fog,0,2013-01-14 06:53:00
2:00 AM,46.4,44.6,93,30.02,0.5,Calm,Calm,-,N/A,Fog,Fog,0,2013-01-14 07:00:00
2:12 AM,46.4,44.6,93,30.03,0.2,Calm,Calm,-,N/A,Fog,Fog,0,2013-01-14 07:12:00
2:53 AM,46.9,45.0,93,30.02,0.2,Calm,Calm,-,N/A,Fog,Fog,0,2013-01-14 07:53:00
3:34 AM,46.4,44.6,93,29.99,0.5,Calm,Calm,-,N/A,Fog,Fog,0,2013-01-14 08:34:00
3:53 AM,46.4,44.6,93,30.00,0.5,Calm,Calm,-,N/A,Fog,Fog,0,2013-01-14 08:53:00
4:53 AM,46.9,45.0,93,30.00,0.5,Calm,Calm,-,N/A,Fog,Fog,0,2013-01-14 09:53:00
5:53 AM,48.0,46.0,93,29.99,0.2,Calm,Calm,-,N/A,Fog,Fog,0,2013-01-14 10:53:00
6:50 AM,48.2,44.6,87,29.92,0.5,SE,10.4,-,N/A,Fog,Fog,130,2013-01-14 11:50:00
6:53 AM,48.0,45.0,89,29.94,0.2,SSE,4.6,-,0.00,Fog-Rain,Light Rain,150,2013-01-14 11:53:00
7:10 AM,48.2,46.4,93,29.95,0.2,Calm,Calm,-,0.00,Fog,Fog,0,2013-01-14 12:10:00
7:27 AM,48.2,46.4,93,30.01,0.5,West,5.8,-,0.00,Fog,Fog,280,2013-01-14 12:27:00
7:32 AM,46.4,44.6,93,30.01,0.1,West,3.5,-,0.00,Fog,Fog,280,2013-01-14 12:32:00
7:53 AM,46.9,45.0,93,30.02,0.1,Calm,Calm,-,0.00,Fog,Fog,0,2013-01-14 12:53:00
8:53 AM,48.9,46.9,93,30.03,0.1,Calm,Calm,-,N/A,Fog,Fog,0,2013-01-14 13:53:00
9:53 AM,50.0,48.0,93,30.05,0.1,SSW,4.6,-,N/A,Fog,Fog,200,2013-01-14 14:53:00
10:27 AM,50.0,48.2,94,30.05,0.2,WSW,3.5,-,N/A,Fog,Fog,240,2013-01-14 15:27:00
10:53 AM,48.0,46.0,93,30.05,0.2,West,3.5,-,N/A,Fog,Fog,260,2013-01-14 15:53:00
11:15 AM,48.2,48.2,100,30.04,3.0,Calm,Calm,-,N/A,,Overcast,0,2013-01-14 16:15:00
11:24 AM,50.0,48.2,94,30.04,3.0,Calm,Calm,-,N/A,,Overcast,0,2013-01-14 16:24:00
11:35 AM,50.0,48.2,94,30.04,3.0,SW,3.5,-,N/A,,Overcast,230,2013-01-14 16:35:00
11:53 AM,48.9,46.9,93,30.04,6.0,SW,4.6,-,N/A,,Overcast,230,2013-01-14 16:53:00
12:04 PM,48.2,46.4,93,30.04,7.0,WSW,4.6,-,N/A,,Overcast,240,2013-01-14 17:04:00
12:32 PM,50.0,48.2,94,30.05,9.0,WSW,5.8,-,N/A,,Overcast,240,2013-01-14 17:32:00
12:53 PM,48.9,46.0,90,30.04,9.0,WSW,4.6,-,N/A,,Mostly Cloudy,250,2013-01-14 17:53:00
1:49 PM,55.4,48.2,77,30.07,10.0,NW,4.6,-,N/A,,Overcast,310,2013-01-14 18:49:00
1:53 PM,57.0,48.0,72,30.06,10.0,NNW,5.8,-,N/A,,Overcast,330,2013-01-14 18:53:00
2:53 PM,54.0,43.0,66,30.10,10.0,North,11.5,-,N/A,,Partly Cloudy,360,2013-01-14 19:53:00
3:53 PM,53.1,39.0,59,30.13,10.0,North,5.8,-,N/A,,Scattered Clouds,350,2013-01-14 20:53:00
4:53 PM,51.1,35.1,54,30.15,10.0,North,8.1,-,N/A,,Overcast,350,2013-01-14 21:53:00
5:53 PM,48.0,28.9,48,30.16,10.0,North,15.0,-,N/A,,Overcast,360,2013-01-14 22:53:00
6:53 PM,46.9,27.0,46,30.19,10.0,North,9.2,-,N/A,,Mostly Cloudy,360,2013-01-14 23:53:00
7:53 PM,46.0,27.0,47,30.23,10.0,NNW,11.5,-,N/A,,Mostly Cloudy,340,2013-01-15 00:53:00
8:53 PM,44.1,25.0,47,30.25,10.0,NNW,8.1,18.4,N/A,,Overcast,330,2013-01-15 01:53:00
9:53 PM,42.1,26.1,53,30.27,10.0,NNW,9.2,-,0.00,,Overcast,330,2013-01-15 02:53:00
10:53 PM,39.0,28.9,67,30.28,10.0,NNW,10.4,16.1,0.01,Rain,Light Rain,340,2013-01-15 03:53:00
11:53 PM,37.9,30.0,73,30.27,10.0,North,8.1,-,0.00,Rain,Light Rain,350,2013-01-15 04:53:00